| time (UTC) | temp C | wind direction | speed KPH | gust KPH | rain 1hr cm | rain 24hr cm | rain mn cm | humidity % | barometer mb |
| 20260506003058 | 10 | 204 | 0.0 | 3.2 | 0.46 | 1.78 | 1.70 | 94 | 1009.2 |
| 20260506001617 | 10 | 201 | 0.0 | 1.6 | 0.56 | 1.73 | 1.65 | 94 | 1009.4 |
| 20260506000055 | 10 | 210 | 0.0 | 1.6 | 0.53 | 1.63 | 1.55 | 94 | 1009.5 |
| 20260505234556 | 10 | 209 | 0.0 | 1.6 | 0.51 | 1.45 | 1.40 | 94 | 1009.8 |
| 20260505233057 | 10 | 209 | 0.0 | 0.0 | 0.48 | 1.30 | 1.22 | 94 | 1009.4 |
| 20260505231556 | 10 | 211 | 0.0 | 1.6 | 0.46 | 1.17 | 1.09 | 94 | 1009.4 |
| 20260505224550 | 10 | 209 | 0.0 | 3.2 | 0.43 | 0.97 | 0.89 | 93 | 1009.2 |
| 20260505223056 | 10 | 197 | 0.0 | 4.8 | 0.38 | 0.79 | 0.71 | 93 | 1009.2 |
| 20260505221551 | 10 | 226 | 0.0 | 8.0 | 0.38 | 0.71 | 0.64 | 93 | 1009.0 |
| 20260505220047 | 10 | 285 | 0.0 | 4.8 | 0.41 | 0.64 | 0.56 | 93 | 1009.1 |
| 20260505214557 | 11 | 359 | 1.6 | 6.4 | 0.36 | 0.53 | 0.46 | 92 | 1009.2 |
| 20260505213053 | 11 | 337 | 1.6 | 6.4 | 0.25 | 0.38 | 0.30 | 92 | 1008.9 |
| 20260505211538 | 11 | 251 | 3.2 | 9.7 | 0.23 | 0.33 | 0.25 | 91 | 1008.8 |
| 20260505210033 | 12 | 359 | 4.8 | 8.0 | 0.15 | 0.23 | 0.15 | 90 | 1008.7 |
| 20260505204533 | 12 | 256 | 3.2 | 11.3 | 0.10 | 0.18 | 0.10 | 89 | 1008.6 |
| 20260505203027 | 13 | 247 | 4.8 | 12.9 | 0.05 | 0.13 | 0.05 | 87 | 1008.5 |
| 20260505201540 | 13 | 243 | 3.2 | 9.7 | 0.03 | 0.10 | 0.03 | 85 | 1008.3 |
| 20260505200019 | 14 | 359 | 4.8 | 12.9 | 0.00 | 0.08 | 0.00 | 82 | 1008.0 |
| 20260505194518 | 14 | 249 | 1.6 | 12.9 | 0.00 | 0.08 | 0.00 | 81 | 1007.9 |
| 20260505193037 | 14 | 258 | 4.8 | 12.9 | 0.00 | 0.08 | 0.00 | 81 | 1008.1 |
| 20260505191517 | 14 | 245 | 3.2 | 8.0 | 0.00 | 0.08 | 0.00 | 81 | 1008.1 |
| 20260505190028 | 15 | 260 | 1.6 | 9.7 | 0.00 | 0.08 | 0.00 | 81 | 1008.0 |
| 20260505184519 | 14 | 359 | 3.2 | 19.3 | 0.00 | 0.08 | 0.00 | 81 | 1008.0 |
| 20260505183017 | 15 | 359 | 3.2 | 14.5 | 0.00 | 0.08 | 0.00 | 80 | 1008.3 |
| 20260505181515 | 15 | 251 | 8.0 | 16.1 | 0.00 | 0.08 | 0.00 | 78 | 1008.0 |
| 20260505180006 | 15 | 257 | 8.0 | 17.7 | 0.00 | 0.08 | 0.00 | 77 | 1007.8 |
| 20260505174504 | 16 | 276 | 4.8 | 16.1 | 0.00 | 0.08 | 0.00 | 74 | 1007.4 |
| 20260505173002 | 17 | 253 | 9.7 | 20.9 | 0.00 | 0.08 | 0.00 | 71 | 1007.1 |
| 20260505171501 | 17 | 237 | 8.0 | 19.3 | 0.00 | 0.08 | 0.00 | 73 | 1006.9 |
| 20260505170109 | 16 | 253 | 6.4 | 14.5 | 0.00 | 0.08 | 0.00 | 74 | 1006.9 |
| 20260505164558 | 16 | 251 | 6.4 | 14.5 | 0.00 | 0.08 | 0.00 | 70 | 1006.9 |
| 20260505163107 | 17 | 285 | 8.0 | 19.3 | 0.00 | 0.08 | 0.00 | 66 | 1006.8 |
| 20260505161557 | 18 | 252 | 3.2 | 8.0 | 0.00 | 0.08 | 0.00 | 67 | 1006.1 |
| 20260505153107 | 18 | 228 | 3.2 | 22.5 | 0.00 | 0.08 | 0.00 | 67 | 1006.8 |
| 20260505151552 | 18 | 232 | 8.0 | 17.7 | 0.00 | 0.08 | 0.00 | 66 | 1006.3 |
| 20260505150110 | 18 | 231 | 6.4 | 19.3 | 0.00 | 0.08 | 0.00 | 65 | 1006.3 |
| 20260505124537 | 18 | 202 | 4.8 | 19.3 | 0.00 | 0.08 | 0.00 | 66 | 1004.7 |
| 20260505123059 | 18 | 223 | 4.8 | 14.5 | 0.00 | 0.08 | 0.00 | 66 | 1004.6 |
| 20260505121535 | 18 | 179 | 4.8 | 19.3 | 0.00 | 0.08 | 0.00 | 66 | 1004.5 |
| 20260505120043 | 18 | 248 | 9.7 | 20.9 | 0.00 | 0.08 | 0.00 | 66 | 1004.4 |
| 20260505114541 | 18 | 230 | 6.4 | 19.3 | 0.00 | 0.08 | 0.00 | 67 | 1004.3 |
| 20260505113028 | 18 | 238 | 11.3 | 24.1 | 0.00 | 0.08 | 0.00 | 67 | 1004.1 |
| 20260505111525 | 17 | 220 | 6.4 | 24.1 | 0.00 | 0.08 | 0.00 | 67 | 1003.9 |
| 20260505101519 | 17 | 184 | 3.2 | 22.5 | 0.00 | 0.08 | 0.00 | 66 | 1003.0 |
| 20260505100021 | 17 | 249 | 8.0 | 22.5 | 0.00 | 0.08 | 0.00 | 66 | 1003.0 |
| 20260505094516 | 17 | 199 | 8.0 | 25.7 | 0.00 | 0.08 | 0.00 | 66 | 1002.9 |
| 20260505093016 | 17 | 182 | 8.0 | 25.7 | 0.00 | 0.08 | 0.00 | 67 | 1002.8 |
| 20260505091522 | 17 | 173 | 6.4 | 19.3 | 0.00 | 0.08 | 0.00 | 67 | 1002.7 |
| 20260505090021 | 17 | 266 | 4.8 | 24.1 | 0.00 | 0.08 | 0.00 | 67 | 1003.0 |
| 20260505084519 | 17 | 195 | 3.2 | 17.7 | 0.00 | 0.08 | 0.00 | 67 | 1002.9 |
| 20260505083014 | 17 | 250 | 8.0 | 16.1 | 0.00 | 0.08 | 0.00 | 67 | 1002.4 |
| 20260505081513 | 18 | 185 | 4.8 | 24.1 | 0.00 | 0.08 | 0.00 | 66 | 1002.4 |
| 20260505080011 | 18 | 244 | 4.8 | 22.5 | 0.00 | 0.08 | 0.00 | 66 | 1002.5 |
| 20260505074511 | 18 | 144 | 4.8 | 16.1 | 0.00 | 0.08 | 0.00 | 66 | 1002.5 |
| 20260505073015 | 18 | 194 | 6.4 | 19.3 | 0.00 | 0.08 | 0.00 | 66 | 1002.7 |
| 20260505071512 | 18 | 359 | 4.8 | 22.5 | 0.00 | 0.08 | 0.00 | 66 | 1002.5 |
| 20260505070016 | 18 | 201 | 6.4 | 14.5 | 0.00 | 0.08 | 0.00 | 66 | 1002.5 |
| 20260505064508 | 18 | 199 | 8.0 | 14.5 | 0.00 | 0.08 | 0.00 | 66 | 1002.9 |
| 20260505063007 | 18 | 359 | 6.4 | 19.3 | 0.00 | 0.08 | 0.00 | 65 | 1003.3 |
| 20260505061510 | 18 | 197 | 6.4 | 20.9 | 0.00 | 0.08 | 0.00 | 64 | 1003.2 |
| 20260505060009 | 18 | 243 | 8.0 | 22.5 | 0.00 | 0.08 | 0.00 | 65 | 1003.4 |
| 20260505054502 | 18 | 289 | 9.7 | 20.9 | 0.00 | 0.08 | 0.00 | 66 | 1003.5 |
| 20260505053107 | 17 | 248 | 8.0 | 22.5 | 0.00 | 0.08 | 0.00 | 67 | 1003.6 |
| 20260505051557 | 17 | 237 | 6.4 | 22.5 | 0.00 | 0.08 | 0.00 | 71 | 1003.8 |
| 20260505050125 | 16 | 243 | 4.8 | 14.5 | 0.00 | 0.08 | 0.00 | 75 | 1003.9 |
| 20260505041602 | 16 | 359 | 1.6 | 4.8 | 0.00 | 0.08 | 0.00 | 74 | 1004.7 |
| 20260505040055 | 16 | 359 | 1.6 | 8.0 | 0.00 | 0.08 | 0.00 | 70 | 1005.1 |
| 20260505034543 | 18 | 268 | 6.4 | 14.5 | 0.00 | 0.08 | 0.08 | 62 | 1005.2 |
| 20260505033046 | 18 | 359 | 3.2 | 16.1 | 0.00 | 0.08 | 0.08 | 64 | 1004.5 |
| 20260505031546 | 18 | 232 | 11.3 | 20.9 | 0.00 | 0.08 | 0.08 | 64 | 1004.2 |
| 20260505030043 | 18 | 166 | 8.0 | 24.1 | 0.00 | 0.08 | 0.08 | 65 | 1004.2 |
| 20260505024541 | 17 | 195 | 6.4 | 27.4 | 0.00 | 0.08 | 0.08 | 67 | 1004.2 |
| 20260505023045 | 17 | 201 | 4.8 | 17.7 | 0.00 | 0.08 | 0.08 | 70 | 1004.2 |
| 20260505021542 | 16 | 359 | 3.2 | 22.5 | 0.00 | 0.08 | 0.08 | 74 | 1004.2 |
| 20260505020040 | 16 | 359 | 4.8 | 16.1 | 0.00 | 0.08 | 0.08 | 78 | 1004.2 |
| 20260505014600 | 15 | 199 | 1.6 | 9.7 | 0.00 | 0.08 | 0.08 | 81 | 1004.1 |
| 20260505013042 | 15 | 199 | 1.6 | 6.4 | 0.00 | 0.08 | 0.08 | 82 | 1004.1 |
| 20260505011538 | 16 | 146 | 1.6 | 6.4 | 0.05 | 0.08 | 0.08 | 83 | 1003.9 |
| 20260505010038 | 16 | 359 | 1.6 | 4.8 | 0.08 | 0.08 | 0.08 | 82 | 1004.0 |
| 20260505004540 | 17 | 359 | 0.0 | 9.7 | 0.08 | 0.08 | 0.08 | 79 | 1004.2 |